Karlovy Vary, Czech Republic

5:56 AM CET on February 07, 2016 (GMT +0100)
Karlovy Vary

Weather History for LKKV - July, 2013

Change the Weather History Date:

Wednesday, July 17, 2013

  Actual Average (EDQM) Record (EDQM)
Temperature  
Mean Temperature 63 °F -  
Max Temperature 78 °F 69 °F 89 °F (2015)
Min Temperature 48 °F 52 °F 42 °F (1996)
Degree Days  
Heating Degree Days 2    
Growing Degree Days 13 (Base 50)    
Moisture  
Dew Point 51 °F    
Average Humidity 56    
Maximum Humidity 94    
Minimum Humidity 30    
Precipitation  
Precipitation 0.00 in - - ()
Sea Level Pressure  
Sea Level Pressure 30.22 in    
Wind  
Wind Speed 4 mph ()    
Max Wind Speed 13 mph    
Max Gust Speed -    
Visibility 6.2 miles    
Events      
Averages and records for this station are not official NWS values.
T = Trace of Precipitation, MM = Missing Value Source: Averaged Metar Reports

Daily Weather History Graph

Daily Weather History Graph

Search for Another Location

Airport or City:

Trip Planner

Search our weather history database for the weather conditions in past years. The results will help you decide how hot, cold, wet, or windy it might be!

Date:

Astronomy

Jul. 17, 2013 Rise Set
Actual Time 5:17 AM CEST 9:10 PM CEST
Civil Twilight 4:35 AM CEST 9:52 PM CEST
Nautical Twilight 3:36 AM CEST 10:50 PM CEST
Astronomical Twilight 1:56 AM CEST 12:27 AM CEST
Moon 3:30 PM CEST (7/17) 12:27 AM CEST (7/17)
Length of Visible Light 17h 17m
Length of Day
15h 53m
Waxing Gibbous, 64% of the Moon is Illuminated
Jul 17
Waxing Gibbous
Jul 22
Full
Jul 29
Last Quarter
Aug 6
New
Aug 14
First Quarter

Hourly Weather History & Observations

Time (CEST) Temp. Dew Point Humidity Pressure Visibility Wind Dir Wind Speed Gust Speed Precip Events Conditions
12:00 AM 57 °F 49 °F 67%  in 31 mi East 4.5 mph - -   Clear
12:00 AM 57.2 °F 50.0 °F 77% 30.21 in - East 3.5 mph - N/A   Clear
1:00 AM 54 °F 48 °F 75%  in 31 mi ESE 2.2 mph - -  
1:00 AM 53.6 °F 50.0 °F 88% 30.21 in - ESE 2.3 mph - N/A   Clear
2:00 AM 53 °F 49 °F 80%  in 31 mi ENE 1.2 mph - -  
2:00 AM 53.6 °F 48.2 °F 82% 30.24 in - Variable 1.2 mph - N/A   Clear
3:00 AM 52 °F 50 °F 89%  in 31 mi East 2.2 mph - -  
3:00 AM 51.8 °F 50.0 °F 94% 30.24 in - ESE 1.2 mph - N/A   Clear
4:00 AM 50 °F 48 °F 89%  in 31 mi SE 2.2 mph - -   Clear
4:00 AM 50.0 °F 48.2 °F 94% 30.21 in - East 3.5 mph - N/A   Clear
5:00 AM 50 °F 49 °F 93%  in 31 mi South 2.2 mph - -   Clear
5:00 AM 50.0 °F 48.2 °F 94% 30.21 in - East 3.5 mph - N/A   Clear
6:00 AM 50.0 °F 48.2 °F 94% 30.21 in - East 2.3 mph - N/A   Clear
7:00 AM 57.2 °F 51.8 °F 82% 30.24 in - East 1.2 mph - N/A   Clear
8:00 AM 65 °F 52 °F 54%  in 25 mi NE 2.2 mph - -   Clear
8:00 AM 66.2 °F 53.6 °F 64% 30.24 in - Calm Calm - N/A   Clear
8:30 AM 68.0 °F 53.6 °F 60% 30.24 in - Variable 2.3 mph - N/A   Clear
9:00 AM 69 °F 53 °F 46%  in 25 mi NNE 4.5 mph - -   Scattered Clouds
9:00 AM 68.0 °F 51.8 °F 56% 30.24 in 6.2 mi Variable 2.3 mph - N/A   Partly Cloudy
9:30 AM 71.6 °F 53.6 °F 53% 30.24 in 6.2 mi ENE 3.5 mph - N/A   Partly Cloudy
10:00 AM 72 °F 51 °F 36%  in 31 mi NNE 4.5 mph - -   Scattered Clouds
10:00 AM 71.6 °F 51.8 °F 50% 30.24 in 6.2 mi Variable 4.6 mph - N/A   Partly Cloudy
10:30 AM 73.4 °F 53.6 °F 50% 30.24 in 6.2 mi Variable 3.5 mph - N/A   Partly Cloudy
11:00 AM 75 °F 52 °F 34%  in 31 mi ENE 4.5 mph - -   Scattered Clouds
11:00 AM 75.2 °F 53.6 °F 47% 30.24 in 6.2 mi East 6.9 mph - N/A   Scattered Clouds
11:30 AM 73.4 °F 51.8 °F 47% 30.24 in - NE 4.6 mph - N/A   Clear
12:00 PM 75 °F 52 °F 34%  in 31 mi ENE 6.7 mph - -   Partly Cloudy
12:00 PM 75.2 °F 53.6 °F 47% 30.24 in - Variable 4.6 mph - N/A   Clear
12:30 PM 75.2 °F 51.8 °F 44% 30.24 in - ESE 5.8 mph - N/A   Clear
1:00 PM 74 °F 51 °F 34%  in 31 mi NE 6.7 mph - -   Partly Cloudy
1:00 PM 77.0 °F 51.8 °F 41% 30.24 in - Variable 4.6 mph - N/A   Clear
1:30 PM 73.4 °F 51.8 °F 47% 30.21 in - NE 4.6 mph - N/A   Clear
2:00 PM 75 °F 52 °F 34%  in 31 mi SE 3.5 mph - -   Partly Cloudy
2:00 PM 75.2 °F 53.6 °F 47% 30.21 in - East 5.8 mph - N/A   Clear
2:30 PM 78.8 °F 51.8 °F 39% 30.21 in - Variable 4.6 mph - N/A   Clear
3:00 PM 75 °F 49 °F 30%  in 31 mi ENE 4.5 mph - -   Partly Cloudy
3:00 PM 75.2 °F 50.0 °F 41% 30.21 in - NNE 4.6 mph - N/A   Clear
3:30 PM 78.8 °F 51.8 °F 39% 30.21 in - Variable 3.5 mph - N/A   Clear
4:00 PM 76 °F 51 °F 31%  in 31 mi ENE 8.9 mph - -   Partly Cloudy
4:00 PM 77.0 °F 51.8 °F 41% 30.21 in - ENE 5.8 mph - N/A   Clear
4:30 PM 77.0 °F 51.8 °F 41% 30.21 in - NE 5.8 mph - N/A   Clear
5:00 PM 77.0 °F 51.8 °F 41% 30.21 in - NNE 9.2 mph - N/A   Clear
5:30 PM 75.2 °F 51.8 °F 44% 30.21 in - NE 8.1 mph - N/A   Clear
6:00 PM 74 °F 52 °F 35%  in 25 mi ENE 13.4 mph - -   Partly Cloudy
6:00 PM 75.2 °F 51.8 °F 44% 30.21 in - NE 10.4 mph - N/A   Clear
6:30 PM 73.4 °F 51.8 °F 47% 30.21 in - ENE 6.9 mph - N/A   Clear
7:00 PM 73.4 °F 51.8 °F 47% 30.21 in - NE 5.8 mph - N/A   Clear
7:30 PM 71.6 °F 53.6 °F 53% 30.21 in - NE 6.9 mph - N/A   Clear
8:00 PM 69.8 °F 53.6 °F 56% 30.21 in - NNE 5.8 mph - N/A   Clear
8:30 PM 69.8 °F 51.8 °F 53% 30.21 in - NNE 6.9 mph - N/A   Clear
9:00 PM 68.0 °F 51.8 °F 56% 30.21 in - NNE 4.6 mph - N/A   Clear
10:00 PM 66.2 °F 50.0 °F 56% 30.24 in - NE 6.9 mph - N/A   Clear
11:00 PM 64.4 °F 51.8 °F 64% 30.24 in - NE 6.9 mph - N/A   Clear